Temp
9 9 9 9 10 10 11 11 12 12 12 13 13 13 13 13 13 13 13 13 13 12 12 12 13 13 13 13 13 13 14 14 13 14 14 14 14 13 13 14 14 14 14 13 13
9 9 9 9 10 10 10 11 11 12 12 13 13 13 13 13 13 13 13 13 13 12 12 12 12 13 13 12 13 14 14 14 14 14 14 14 13 13 13 14 14 14 14 13 13
9 9 9 9 10 10 10 11 11 11 12 12 12 13 13 13 12 13 13 13 13 12 12 12 12 12 12 12 13 14 14 14 14 14 14 14 14 14 14 14 14 14 14 14 13
8 9 9 10 10 10 11 11 11 11 12 12 12 13 13 12 11 12 12 13 12 12 12 12 11 11 12 12 13 14 14 14 14 14 14 14 14 14 13 14 14 14 13 13 13
8 9 9 9 10 10 10 11 11 11 11 12 12 12 12 11 11 12 12 12 12 12 11 11 11 12 12 13 13 13 14 14 14 14 14 14 14 13 14 14 14 13 13 12 12
8 8 9 9 9 10 10 11 11 10 11 11 12 12 12 11 11 11 12 12 12 11 11 11 12 12 13 13 13 14 14 14 14 14 14 14 14 14 14 13 13 13 13 12 12
7 8 9 9 9 10 10 11 10 10 11 11 11 11 11 11 11 11 12 12 11 11 11 12 12 12 13 13 14 14 14 14 14 14 14 14 14 14 14 13 13 13 12 12 12
7 8 8 9 9 9 10 10 10 10 10 11 11 11 11 11 11 11 12 12 11 11 11 12 12 13 13 13 13 14 14 15 15 14 14 14 14 14 14 14 13 13 12 12 12
7 7 8 8 9 9 9 10 10 10 10 11 11 11 10 10 11 11 11 11 11 11 11 12 12 13 13 14 14 14 14 14 14 15 15 14 14 14 14 14 13 12 12 11 11
7 7 8 8 8 9 9 9 10 10 10 10 11 11 10 10 11 11 11 11 11 11 11 12 12 13 14 14 14 14 14 14 14 14 15 15 14 14 14 13 12 12 11 11 11
7 7 8 8 8 8 8 9 9 10 10 10 10 10 10 10 11 11 11 11 11 11 12 12 12 14 14 13 14 13 13 14 14 14 14 14 14 14 13 12 12 11 12 12 11
7 7 8 8 8 8 8 8 9 9 10 10 11 10 11 10 11 11 11 11 11 11 12 12 13 13 13 13 13 14 14 14 14 14 14 14 13 13 13 12 12 11 11 11 11
7 7 7 8 8 8 7 7 8 9 9 11 11 10 10 11 10 10 10 11 11 11 12 12 13 13 14 14 14 15 15 15 14 13 13 13 13 12 12 12 12 12 12 12 11
6 7 8 8 7 7 7 7 7 8 9 11 11 10 10 11 11 10 11 11 11 11 12 13 13 14 14 14 14 14 15 14 14 13 13 12 12 12 12 12 12 12 12 12 11
6 6 7 7 7 7 7 7 7 8 6 10 11 11 10 11 10 10 10 11 11 12 12 13 13 14 14 14 14 14 14 14 14 14 14 12 12 13 12 13 13 12 12 12 12
5 6 7 7 7 7 7 6 7 7 7 10 10 10 10 10 10 11 10 11 11 11 12 13 13 14 14 14 14 14 14 14 14 14 12 13 12 13 13 13 13 12 12 12 12
5 5 7 7 6 7 7 6 6 7 10 10 10 10 10 11 10 10 10 11 11 12 12 13 14 14 14 14 14 14 14 13 11 10 10 12 12 13 14 14 13 13 13 12 12
5 5 6 6 6 7 7 6 6 8 9 9 10 10 10 10 10 10 10 11 11 12 12 13 14 14 14 14 14 14 14 13 10 8 10 12 12 13 13 13 12 12 12 12 12
5 5 6 6 7 7 6 6 7 8 8 9 10 10 10 10 11 11 11 11 12 12 12 13 13 14 14 14 14 14 14 13 13 11 10 11 12 13 13 13 12 12 12 12 12
4 5 6 6 6 6 6 6 6 8 8 9 9 10 11 10 11 11 11 12 12 12 12 12 13 13 13 13 13 13 13 13 13 8 9 10 11 13 13 13 12 12 12 12 12
4 4 5 6 6 6 6 6 7 7 8 8 9 9 10 11 11 11 12 12 12 12 12 12 12 13 13 13 13 13 13 13 12 11 7 6 11 12 13 13 12 12 12 12 12
3 4 5 5 5 5 5 6 6 7 7 8 8 9 10 10 11 11 12 12 12 12 12 12 13 13 13 13 13 13 13 12 12 11 11 11 12 12 12 12 12 12 12 12 12
3 3 4 4 4 5 4 4 5 7 7 8 9 9 9 10 11 11 12 12 12 12 12 13 12 12 11 12 12 12 13 13 12 12 11 10 12 12 12 11 11 12 12 12 11
2 3 3 3 4 4 4 4 5 5 7 8 9 9 9 9 10 11 11 11 12 12 13 13 13 13 12 13 12 12 12 11 12 11 11 11 11 11 11 11 11 11 11 11 11
1 2 3 3 3 4 4 4 4 6 7 7 8 9 9 9 10 10 11 11 11 12 13 12 13 13 13 12 12 12 11 11 11 11 11 11 10 11 11 11 11 11 11 11 11
1 2 3 2 3 3 4 4 4 5 7 7 8 9 9 9 10 10 11 11 11 11 12 12 12 12 12 12 11 11 11 11 11 11 10 10 10 10 10 10 10 10 10 10 10
0 1 2 2 3 3 3 4 4 5 6 7 7 8 9 9 9 10 10 11 11 11 11 12 12 11 10 10 11 11 11 11 11 10 10 10 10 9 9 9 9 9 9 9 9
Height
3164 3163 3162 3161 3160 3160 3159 3156 3156 3155 3154 3153 3152 3151 3151 3150 3151 3152 3153 3155 3155 3155 3157 3158 3159 3161 3165 3167 3171 3174 3177 3177 3177 3177 3179 3181 3182 3182 3183 3184 3183 3182 3180 3179 3179
3162 3161 3161 3160 3158 3158 3157 3154 3154 3152 3152 3151 3149 3149 3149 3150 3150 3150 3152 3153 3154 3155 3157 3158 3159 3161 3164 3168 3172 3174 3176 3177 3177 3178 3179 3181 3182 3183 3185 3185 3185 3184 3181 3179 3181
3160 3160 3159 3158 3157 3156 3155 3153 3152 3150 3149 3149 3148 3147 3148 3149 3150 3149 3150 3153 3154 3156 3157 3159 3160 3162 3165 3169 3172 3174 3176 3177 3178 3179 3180 3181 3182 3183 3185 3185 3185 3185 3183 3182 3183
3158 3157 3157 3156 3156 3155 3153 3151 3151 3148 3147 3147 3146 3146 3147 3148 3151 3148 3150 3152 3154 3157 3159 3160 3162 3164 3166 3169 3171 3174 3175 3176 3177 3179 3180 3181 3182 3183 3184 3185 3185 3186 3184 3185 3186
3155 3156 3155 3154 3154 3152 3150 3150 3149 3147 3145 3145 3145 3145 3146 3148 3148 3148 3150 3152 3154 3157 3159 3160 3162 3164 3167 3169 3171 3173 3175 3176 3177 3178 3179 3180 3182 3183 3184 3185 3185 3186 3185 3186 3186
3154 3153 3153 3152 3151 3150 3148 3148 3147 3145 3144 3143 3144 3144 3145 3147 3147 3148 3149 3151 3153 3156 3158 3160 3162 3165 3167 3169 3171 3173 3174 3176 3177 3178 3180 3181 3182 3183 3184 3185 3185 3186 3187 3186 3186
3152 3151 3150 3150 3149 3148 3147 3146 3146 3143 3143 3142 3141 3142 3144 3147 3146 3147 3149 3151 3153 3156 3158 3160 3162 3165 3167 3169 3170 3172 3174 3175 3176 3177 3179 3180 3181 3181 3182 3183 3184 3186 3187 3186 3185
3149 3149 3148 3148 3147 3146 3145 3143 3144 3142 3141 3140 3140 3141 3143 3145 3145 3147 3149 3151 3153 3156 3159 3161 3163 3166 3167 3169 3170 3171 3172 3174 3176 3178 3179 3179 3180 3178 3180 3182 3184 3185 3187 3186 3186
3146 3147 3146 3146 3144 3144 3142 3140 3141 3140 3139 3139 3139 3140 3143 3143 3144 3146 3148 3150 3153 3155 3157 3160 3163 3164 3167 3168 3169 3170 3172 3174 3176 3177 3178 3179 3179 3179 3179 3181 3182 3184 3186 3185 3186
3144 3145 3144 3143 3142 3141 3138 3138 3139 3139 3138 3138 3138 3142 3141 3142 3143 3145 3147 3149 3152 3155 3158 3160 3161 3162 3165 3167 3169 3170 3171 3173 3174 3177 3177 3178 3180 3180 3180 3180 3181 3184 3185 3185 3185
3142 3143 3141 3141 3140 3138 3137 3137 3141 3139 3137 3136 3137 3137 3138 3140 3141 3143 3146 3148 3151 3155 3157 3158 3160 3162 3165 3166 3167 3168 3168 3169 3172 3174 3176 3178 3179 3180 3181 3180 3181 3183 3184 3185 3184
3139 3139 3139 3139 3138 3137 3137 3136 3137 3136 3135 3133 3134 3136 3137 3138 3140 3142 3145 3148 3151 3154 3156 3159 3159 3162 3163 3165 3166 3165 3165 3167 3171 3174 3176 3177 3178 3179 3180 3179 3180 3181 3181 3181 3181
3136 3135 3137 3137 3136 3136 3135 3135 3134 3134 3133 3132 3131 3135 3137 3139 3140 3141 3144 3146 3149 3153 3155 3156 3159 3159 3161 3163 3164 3164 3165 3167 3169 3172 3174 3175 3177 3178 3179 3178 3179 3180 3180 3179 3178
3134 3133 3134 3135 3136 3134 3134 3135 3134 3135 3131 3129 3129 3133 3135 3137 3140 3141 3143 3147 3149 3152 3154 3155 3157 3159 3161 3163 3164 3164 3165 3168 3170 3172 3173 3175 3177 3176 3175 3177 3177 3179 3177 3177 3176
3131 3130 3131 3133 3132 3133 3135 3134 3134 3135 3133 3130 3129 3130 3133 3137 3138 3139 3142 3145 3149 3150 3153 3155 3156 3158 3160 3162 3163 3166 3166 3169 3170 3172 3172 3173 3176 3172 3173 3173 3174 3178 3177 3176 3175
3128 3126 3128 3130 3130 3131 3132 3134 3135 3139 3130 3129 3128 3128 3132 3135 3137 3139 3141 3145 3148 3149 3150 3152 3154 3157 3160 3160 3162 3164 3166 3169 3171 3171 3173 3171 3173 3170 3170 3169 3172 3176 3177 3176 3176
3125 3124 3125 3126 3127 3128 3131 3135 3137 3132 3129 3129 3128 3129 3130 3134 3136 3138 3140 3143 3146 3149 3150 3151 3154 3156 3158 3160 3162 3164 3166 3168 3172 3172 3172 3170 3171 3168 3168 3168 3170 3175 3177 3178 3178
3122 3122 3122 3123 3123 3126 3130 3133 3133 3129 3128 3128 3126 3127 3128 3131 3135 3137 3139 3141 3144 3147 3149 3150 3153 3155 3157 3159 3160 3161 3164 3164 3171 3175 3171 3170 3170 3169 3168 3169 3171 3173 3175 3177 3178
3118 3119 3119 3120 3121 3124 3128 3129 3128 3128 3128 3124 3124 3125 3127 3130 3134 3135 3137 3140 3143 3146 3150 3150 3151 3153 3155 3156 3158 3159 3160 3162 3164 3168 3169 3170 3171 3170 3169 3169 3171 3173 3174 3175 3177
3115 3115 3117 3117 3118 3121 3124 3123 3125 3127 3126 3127 3126 3126 3126 3128 3131 3133 3136 3138 3141 3143 3147 3149 3150 3150 3152 3154 3155 3156 3159 3161 3162 3168 3169 3167 3168 3168 3169 3169 3170 3172 3172 3173 3174
3111 3113 3113 3114 3116 3118 3119 3120 3123 3124 3125 3126 3126 3126 3126 3126 3129 3131 3135 3136 3138 3141 3144 3147 3149 3152 3152 3153 3153 3155 3156 3158 3160 3162 3165 3170 3167 3166 3167 3167 3168 3170 3170 3170 3170
3108 3110 3110 3112 3115 3115 3116 3118 3120 3120 3123 3126 3126 3126 3124 3126 3128 3129 3131 3134 3135 3137 3140 3145 3147 3149 3151 3151 3152 3153 3155 3157 3158 3161 3161 3164 3166 3165 3165 3166 3167 3167 3167 3167 3166
3105 3107 3108 3109 3112 3114 3114 3114 3116 3117 3121 3123 3124 3125 3125 3126 3128 3127 3127 3130 3133 3137 3138 3141 3145 3146 3150 3152 3152 3153 3154 3156 3157 3158 3159 3161 3163 3163 3163 3164 3164 3165 3165 3165 3165
3102 3104 3105 3107 3109 3110 3111 3113 3115 3116 3117 3119 3121 3123 3124 3125 3127 3126 3126 3127 3129 3135 3137 3138 3140 3143 3144 3147 3149 3150 3152 3154 3155 3156 3156 3157 3158 3160 3159 3160 3160 3161 3161 3160 3160
3096 3099 3101 3103 3106 3108 3110 3113 3112 3112 3113 3116 3118 3120 3122 3125 3125 3124 3126 3126 3127 3131 3134 3135 3137 3139 3141 3144 3147 3148 3150 3153 3154 3155 3155 3156 3155 3156 3155 3155 3154 3154 3154 3155 3154
3093 3096 3099 3102 3104 3106 3107 3109 3110 3111 3113 3115 3116 3118 3120 3123 3125 3125 3126 3126 3127 3129 3130 3131 3134 3138 3140 3143 3146 3148 3148 3151 3152 3152 3152 3152 3152 3151 3150 3149 3148 3147 3147 3148 3147
3088 3092 3096 3098 3100 3103 3104 3107 3110 3110 3112 3113 3114 3115 3118 3121 3122 3123 3125 3126 3127 3128 3130 3130 3132 3137 3139 3141 3142 3145 3146 3148 3148 3149 3149 3149 3148 3146 3146 3146 3146 3145 3145 3144 3144
Wind_Speed
16 14 13 13 12 15 13 10 12 12 13 12 10 9 9 7 6 4 4 3 4 5 8 10 11 12 16 16 13 8 10 13 15 13 4 8 7 10 5 4 7 12 8 5 7
17 15 14 14 12 15 15 11 12 10 12 12 10 8 7 7 5 5 4 4 5 7 9 11 13 15 17 15 13 7 9 11 14 13 11 10 2 7 6 9 7 12 10 7 10
18 17 15 15 13 15 16 13 12 10 11 11 9 6 6 5 3 4 5 5 6 8 10 12 13 15 17 13 10 5 8 11 10 12 11 11 8 7 11 11 8 9 12 8 4
17 19 17 15 17 16 15 15 13 10 10 10 7 5 5 4 4 4 6 7 8 10 13 14 16 16 16 11 9 8 4 8 10 8 7 6 6 6 11 9 5 8 12 9 6
16 18 19 18 17 17 14 16 12 10 9 9 7 4 5 5 6 5 7 9 12 15 16 18 18 18 16 10 11 9 8 6 6 5 4 3 8 7 12 7 6 9 13 11 5
16 17 18 18 17 16 15 16 13 11 9 8 6 5 8 7 5 6 8 12 16 18 20 18 18 17 13 10 11 8 8 4 3 2 1 3 2 3 7 7 6 7 7 7 3
17 16 17 18 16 16 16 13 13 11 10 7 5 8 9 7 5 8 11 16 20 20 21 19 18 16 12 10 9 5 6 4 4 3 3 3 1 3 5 8 5 5 8 4 5
16 16 15 17 16 15 16 12 14 11 10 6 5 9 10 6 6 9 14 18 20 21 18 17 14 12 11 7 5 2 5 11 10 7 6 6 4 4 8 8 4 3 8 4 1
16 17 15 16 15 14 14 12 14 12 9 5 7 8 10 6 9 13 18 21 21 20 17 15 14 10 13 6 5 5 7 7 4 7 7 6 3 12 11 8 7 3 6 7 5
16 17 15 15 14 12 13 14 14 12 8 4 9 10 12 10 12 16 21 21 20 18 15 12 11 12 16 8 7 4 3 6 8 7 8 6 6 5 5 10 9 7 6 8 8
15 16 13 15 12 11 12 14 12 12 12 7 8 11 11 12 14 18 20 21 19 15 12 10 10 13 9 5 6 4 5 9 10 8 10 7 5 4 6 11 11 9 2 4 10
17 15 13 15 10 8 13 10 13 12 11 9 12 14 13 13 16 19 18 17 14 14 13 10 15 8 8 6 3 4 4 12 12 13 10 8 5 8 9 9 9 8 1 4 4
17 16 13 15 8 8 12 10 13 12 17 7 12 19 13 13 11 12 17 15 17 15 8 7 6 10 10 4 3 3 2 18 18 18 5 9 8 11 12 11 9 3 6 8 4
16 14 14 15 8 9 13 13 13 12 14 4 14 21 15 13 11 10 13 16 18 10 5 4 7 13 10 9 7 6 8 14 14 18 4 11 4 15 16 14 12 7 7 8 3
16 14 12 11 9 11 12 13 11 9 5 3 12 14 16 14 9 13 11 18 14 8 4 6 7 9 5 4 9 9 8 11 11 10 6 14 6 7 16 18 15 6 5 4 5
16 16 11 10 10 11 12 13 7 6 6 1 8 15 19 16 9 14 14 16 11 8 6 6 6 7 5 8 12 12 11 10 9 9 4 5 6 3 2 8 10 4 11 13 15
16 15 12 9 12 11 13 12 5 7 7 4 3 10 17 16 13 10 17 18 9 8 7 7 8 8 13 11 12 12 10 2 1 1 4 3 3 2 5 4 12 10 9 11 13
15 15 13 12 14 12 14 12 8 4 4 6 5 11 13 20 17 11 12 16 15 9 6 6 7 10 15 12 9 11 10 6 5 3 3 1 3 0 1 4 15 12 7 4 2
15 13 13 12 13 13 16 19 6 3 6 14 1 10 15 17 11 14 13 15 15 13 8 6 5 10 13 13 11 8 7 5 6 4 1 3 3 2 2 1 5 13 5 3 5
15 11 10 12 12 14 20 23 15 13 7 8 6 2 8 14 14 9 11 16 18 13 15 6 5 8 11 10 8 6 7 3 4 4 3 1 3 3 1 1 4 7 5 7 9
14 7 9 10 11 16 20 21 24 20 10 7 10 9 3 7 11 18 8 11 12 17 20 12 6 9 10 5 6 4 4 4 5 3 6 1 0 1 4 7 6 7 10 13 10
14 8 8 9 12 16 19 17 17 22 19 17 14 7 3 1 5 11 18 18 7 13 25 19 6 11 10 8 6 7 7 6 3 4 4 4 5 6 4 2 6 11 11 11 16
16 10 10 12 12 11 11 10 13 19 17 13 8 3 3 3 3 1 10 16 19 16 20 18 11 11 7 9 12 9 8 8 5 3 5 6 3 9 6 6 5 7 11 11 11
16 10 13 15 16 13 9 7 8 12 15 13 13 10 6 4 5 1 0 11 17 20 22 22 18 21 18 17 17 14 11 8 8 6 5 8 8 10 12 12 11 11 12 14 13
18 14 16 17 19 17 17 9 8 8 12 12 9 12 8 8 7 5 2 4 6 16 19 21 19 19 18 11 16 16 12 8 8 7 8 10 14 17 18 19 18 15 12 9 9
19 15 16 14 20 19 14 11 9 7 14 12 8 13 12 8 7 6 6 6 5 12 15 19 11 13 12 13 11 8 6 11 13 14 14 15 20 22 22 17 12 9 9 9 9
20 18 18 20 17 18 14 12 7 6 9 10 7 9 13 8 6 7 7 7 7 8 11 14 11 13 10 11 9 8 12 16 21 15 11 17 22 21 16 14 11 11 12 11 10
Wind_Direction
296 296 293 297 302 296 292 302 300 301 304 303 307 306 303 295 279 259 245 233 208 190 173 182 163 166 174 169 163 150 99 61 54 68 113 144 157 188 174 106 75 49 31 100 106
292 295 290 300 307 299 301 305 301 304 307 306 309 305 299 282 257 231 210 195 185 179 172 176 163 164 168 161 169 150 101 62 68 76 86 162 162 196 154 142 91 46 45 120 111
283 291 291 293 302 301 301 305 301 307 311 309 308 304 284 267 241 206 193 183 175 164 163 169 160 162 159 144 166 156 107 78 83 87 87 94 125 159 151 149 76 61 46 68 102
277 280 288 291 291 298 303 303 300 305 308 312 305 285 260 228 188 194 183 175 162 153 156 152 145 149 153 149 157 157 128 99 77 75 97 94 96 158 153 161 149 92 76 65 32
283 278 284 291 288 294 299 299 298 303 307 310 293 252 224 197 198 191 180 174 160 154 156 158 160 159 162 144 154 123 120 124 86 74 44 113 138 149 163 162 144 138 95 62 50
284 282 280 284 288 291 296 296 295 299 302 300 270 218 204 188 188 185 182 171 161 167 172 172 171 166 157 148 144 136 136 168 105 86 70 84 170 124 170 164 141 137 126 77 96
284 284 280 280 283 286 287 290 286 287 286 290 246 200 194 171 188 175 179 173 169 174 178 182 180 177 167 158 147 157 178 233 106 102 180 86 191 185 158 146 150 154 160 88 37
289 287 283 283 284 286 284 282 275 278 279 286 222 201 188 176 184 176 176 177 176 180 188 192 187 192 187 182 171 174 163 145 156 176 219 221 180 118 148 131 166 207 163 174 350
292 290 287 285 287 286 278 274 268 277 283 276 210 193 167 185 177 177 175 179 181 189 197 202 200 238 209 181 137 109 131 160 188 208 209 210 168 135 131 148 190 245 207 229 244
292 290 289 287 287 282 274 263 266 272 279 257 207 177 191 189 171 175 179 186 194 198 206 225 234 199 187 169 126 143 236 238 217 191 205 237 232 143 168 167 189 223 216 254 284
292 290 290 288 293 280 263 259 269 274 267 236 209 198 186 188 187 177 184 190 199 201 213 195 179 169 166 190 228 286 294 213 192 180 197 215 238 256 221 177 192 206 210 254 258
290 294 294 288 291 272 258 264 272 281 280 260 215 192 184 173 179 183 185 190 189 184 181 164 145 150 179 218 292 306 10 159 161 172 186 209 234 217 195 190 204 191 17 4 243
291 297 294 285 288 263 252 262 276 290 302 229 217 196 194 182 153 180 189 188 181 178 173 162 157 178 188 176 159 159 226 174 184 186 182 186 197 222 211 216 228 259 355 0 334
284 282 281 279 283 244 230 249 272 299 307 283 206 193 205 187 182 180 178 180 175 165 180 165 169 186 206 170 136 120 169 174 189 188 173 199 229 237 239 248 260 294 342 354 104
287 285 288 271 260 238 227 239 267 306 334 306 193 188 198 198 185 178 169 177 172 165 173 171 160 208 215 208 177 165 143 172 184 205 199 206 232 250 232 256 274 268 353 61 93
287 289 285 273 253 235 226 229 259 280 252 342 178 193 202 196 154 177 167 177 187 202 209 173 174 202 189 160 164 178 157 173 194 211 198 201 216 268 263 294 271 182 108 84 98
282 284 280 266 243 235 224 221 242 235 342 0 243 216 213 203 174 166 182 184 174 199 208 199 177 202 178 151 154 170 174 152 146 30 204 167 246 250 314 344 141 155 126 105 106
276 276 275 264 242 225 218 216 234 295 336 319 263 214 221 206 205 196 199 197 189 185 185 179 176 187 190 198 212 207 223 202 177 195 218 207 238 232 321 67 156 171 171 174 231
277 274 271 258 240 218 206 212 221 266 288 4 32 193 207 200 200 208 209 206 198 204 198 192 184 199 211 223 231 212 192 208 146 158 184 183 207 263 271 300 188 187 208 216 281
277 269 266 249 233 215 210 217 223 239 266 345 23 155 214 206 212 203 213 209 204 203 197 202 148 164 179 183 184 196 188 161 193 133 194 262 228 212 209 24 242 232 254 271 292
277 273 239 241 213 208 218 226 230 238 262 334 323 337 94 198 229 226 221 226 204 212 197 193 186 160 167 169 170 190 209 203 163 137 144 128 41 297 226 181 204 243 269 279 291
269 259 231 225 208 214 225 237 251 242 246 268 293 335 113 294 231 216 239 244 235 211 192 196 214 171 148 146 171 190 181 192 208 190 147 143 182 126 101 116 219 240 258 256 262
254 233 225 202 200 209 226 208 241 245 255 257 252 236 292 356 257 290 236 233 230 212 199 204 210 163 127 146 157 178 197 228 230 178 192 164 210 207 261 297 275 265 244 251 277
233 226 215 202 201 206 235 267 268 258 252 239 242 238 240 300 282 213 163 217 224 218 213 221 217 208 201 213 198 192 202 202 226 228 224 248 276 263 268 282 294 300 291 286 293
217 214 199 207 215 229 245 261 280 256 224 198 221 227 229 280 277 251 232 186 192 210 230 214 213 213 223 219 196 198 199 221 249 259 265 282 294 299 299 300 302 306 309 297 300
215 210 198 198 209 225 238 249 258 257 210 199 214 204 210 237 251 222 219 191 174 194 210 204 200 200 174 175 184 205 245 269 273 282 287 298 304 308 305 298 300 308 314 307 291
216 214 205 205 203 218 223 228 240 269 204 233 220 204 205 213 224 223 221 219 190 192 193 193 196 185 178 193 217 239 263 277 280 280 303 315 311 309 298 282 283 296 298 287 292